Weather in Bikbarda

Russia / Perm Krai     56°28′40″N   55°43′17″E
temp.,
°C
wind,
m/s
gust,
m/s
humid.,
%
clouds,
%
prec.,
mm/h
press.,
hPa
HPBL,
m
28 february, sun
sun2823:00−13e61194100 1.3 1004365
02:00−14e5995100 0.4 1003307
05:00−14ene5109499 0.6 1003300
08:00−15ene599395 0.2 1003315
11:00−13ne699196 0.3 1004406
14:00−9ne589096 0.1 1005514
17:00−9ne589098 0.3 1006590
20:00−12ne5109287 0.1 1008314
1 march, mon
mon123:00−13ne499386 0.2 1010286
02:00−14ne489490 0.1 1011268
05:00−15nne489489 0.2 1013263
08:00−17nne479489 0.1 1015235
11:00−15ne469184 0.1 1017360
14:00−12ne238599 0.1 1016491
17:00−11n1285100 0.1 1017424
20:00−15wsw1197100 0.1 101720
2 march, tue
tue223:00−17wsw229898 0.1 101723
02:00−20sw3610097 0.0 101690
05:00−21ssw4910098 0.1 1014232
08:00−20s61196100 0.0 1011308
11:00−17s71196100 0.5 1008383
14:00−14s71294100 0.9 1005525
17:00−11s71294100 1.3 1002613
20:00−11s61295100 0.6 1001515
3 march, wed
wed323:00−10s61395100 1.2 999445
02:00−8s51195100 0.8 998372
05:00−6ssw5996100 2.1 998322
08:00−6wnw479697 0.4 997234
11:00−7w369585 0.4 998235
14:00−3wsw469395 0.3 999535
17:00−3w579097 0.4 1000846
20:00−6wnw4994100 0.2 1001341
4 march, thu
thu423:00−9wnw489698 0.3 1003191
02:00−13wnw359893 0.1 100384
05:00−14w349990 0.1 100447
08:00−13wsw3796100 0.3 1004178
11:00−10sw4795100 0.4 1004282
14:00−7sw5894100 0.1 1002494
17:00−6ssw61193100 0.3 1001672
20:00−6ssw71395100 0.9 998826